Weather History for KAYS - June, 2013

Change the Weather History Date:

Sunday, June 30, 2013

  Actual Average (KAMG) Record (KAMG)
Temperature  
Mean Temperature 82 °F 81 °F  
Max Temperature 89 °F 92 °F 99 °F (1952)
Min Temperature 75 °F 71 °F 53 °F (1958)
Degree Days  
Heating Degree Days 0 0  
Month to date heating degree days 0  
Since 1 June heating degree days 0  
Since 1 July heating degree days 1659  
Cooling Degree Days 17 16  
Month to date cooling degree days 443  
Year to date cooling degree days 873  
Since 1 June cooling degree days 443  
Growing Degree Days 32 (Base 50)    
Moisture  
Dew Point 76 °F    
Average Humidity 86    
Maximum Humidity 100    
Minimum Humidity 66    
Precipitation  
Precipitation 0.00 in 0.19 in 1.46 in (2010)
Month to date precipitation 5.38  
Year to date precipitation 23.47  
Snow  
Snow 0.00 in 0.00 in 0.00 in ()
Month to date snowfall 0.0  
Since 1 June snowfall 0.0  
Since 1 July snowfall 0.1  
Snow Depth -    
Sea Level Pressure  
Sea Level Pressure 29.79 in    
Wind  
Wind Speed 7 mph (SSW)    
Max Wind Speed 16 mph    
Max Gust Speed 21 mph    
Visibility 10 miles    
Events      
T = Trace of Precipitation, MM = Missing Value Source: NWS Daily Summary

Daily Weather History Graph

Daily Weather History Graph

Search for Another Location

Airport or City:

Trip Planner

Search our weather history database for the weather conditions in past years. The results will help you decide how hot, cold, wet, or windy it might be!

Date:

Astronomy

Jun. 30, 2013 Rise Set
Actual Time 6:28 AM EDT 8:37 PM EDT
Civil Twilight 6:00 AM EDT 9:05 PM EDT
Nautical Twilight 5:26 AM EDT 9:39 PM EDT
Astronomical Twilight 4:50 AM EDT 10:16 PM EDT
Moon 1:08 AM EDT (6/30) 2:07 PM EDT (6/30)
Length of Visible Light 15h 04m
Length of Day
14h 09m
Last Quarter, 45% of the Moon is Illuminated
Jun 30
Last Quarter
Jul 8
New
Jul 15
First Quarter
Jul 22
Full
Jul 29
Last Quarter

Hourly Weather History & Observations

Time (EDT) Temp. Heat Index Dew Point Humidity Pressure Visibility Wind Dir Wind Speed Gust Speed Precip Events Conditions
12:15 AM 80.6 °F 87.1 °F 77.0 °F 89% 29.78 in 10.0 mi SSW 8.1 mph - N/A   Clear
12:35 AM 80.6 °F 87.1 °F 77.0 °F 89% 29.78 in 10.0 mi SSW 5.8 mph - N/A   Clear
12:55 AM 80.6 °F 87.1 °F 77.0 °F 89% 29.79 in 10.0 mi SSW 5.8 mph - N/A   Clear
1:15 AM 80.6 °F 86.2 °F 75.2 °F 84% 29.78 in 10.0 mi SSW 8.1 mph - N/A   Scattered Clouds
1:35 AM 80.6 °F 86.2 °F 75.2 °F 84% 29.78 in 10.0 mi SSW 8.1 mph - N/A   Scattered Clouds
1:55 AM 80.6 °F 86.2 °F 75.2 °F 84% 29.77 in 10.0 mi SSW 8.1 mph - N/A   Scattered Clouds
2:15 AM 78.8 °F - 75.2 °F 89% 29.77 in 10.0 mi SSW 8.1 mph - N/A   Mostly Cloudy
2:35 AM 78.8 °F - 75.2 °F 89% 29.76 in 10.0 mi SSW 5.8 mph - N/A   Scattered Clouds
2:55 AM 78.8 °F - 75.2 °F 89% 29.77 in 10.0 mi SSW 5.8 mph - N/A   Clear
3:15 AM 78.8 °F - 75.2 °F 89% 29.76 in 10.0 mi SSW 6.9 mph - N/A   Clear
3:35 AM 78.8 °F - 75.2 °F 89% 29.76 in 10.0 mi SSW 6.9 mph - N/A   Clear
3:55 AM 78.8 °F - 75.2 °F 89% 29.76 in 10.0 mi SSW 6.9 mph - N/A   Clear
4:15 AM 78.8 °F - 75.2 °F 89% 29.77 in 10.0 mi SW 5.8 mph - N/A   Mostly Cloudy
4:35 AM 78.8 °F - 75.2 °F 89% 29.76 in 7.0 mi Calm Calm - N/A   Overcast
4:55 AM 77.0 °F - 75.2 °F 94% 29.77 in 10.0 mi WSW 3.5 mph - N/A   Scattered Clouds
5:15 AM 77.0 °F - 75.2 °F 94% 29.76 in 10.0 mi Calm Calm - N/A   Scattered Clouds
5:35 AM 77.0 °F - 75.2 °F 94% 29.76 in 7.0 mi South 3.5 mph - N/A   Scattered Clouds
5:55 AM 77.0 °F - 75.2 °F 94% 29.77 in 10.0 mi SSW 4.6 mph - N/A   Mostly Cloudy
6:15 AM 77.0 °F - 75.2 °F 94% 29.78 in 10.0 mi South 3.5 mph - N/A   Mostly Cloudy
6:35 AM 77.0 °F - 75.2 °F 94% 29.78 in 10.0 mi South 4.6 mph - N/A   Scattered Clouds
6:55 AM 77.0 °F - 75.2 °F 94% 29.79 in 10.0 mi South 6.9 mph - N/A   Mostly Cloudy
7:15 AM 77.0 °F - 75.2 °F 94% 29.79 in 10.0 mi SSW 8.1 mph - N/A   Scattered Clouds
7:35 AM 77.0 °F - 75.2 °F 94% 29.80 in 10.0 mi SSW 9.2 mph - N/A   Scattered Clouds
7:55 AM 77.0 °F - 75.2 °F 94% 29.80 in 10.0 mi SSW 8.1 mph - N/A   Scattered Clouds
8:15 AM 77.0 °F - 75.2 °F 94% 29.81 in 10.0 mi SW 8.1 mph - N/A   Scattered Clouds
8:35 AM 77.0 °F - 75.2 °F 94% 29.81 in 10.0 mi SW 6.9 mph - N/A   Scattered Clouds
8:55 AM 75.2 °F - 75.2 °F 100% 29.81 in 10.0 mi SSW 9.2 mph - N/A   Mostly Cloudy
9:15 AM 75.2 °F - 75.2 °F 100% 29.81 in 10.0 mi SSW 4.6 mph - N/A   Scattered Clouds
9:35 AM 77.0 °F - 75.2 °F 94% 29.81 in 10.0 mi SSW 9.2 mph - N/A   Clear
9:55 AM 78.8 °F - 75.2 °F 89% 29.81 in 10.0 mi SSW 6.9 mph - N/A   Clear
10:15 AM 80.6 °F 86.2 °F 75.2 °F 84% 29.80 in 10.0 mi SSW 5.8 mph - N/A   Clear
10:35 AM 82.4 °F 90.9 °F 77.0 °F 84% 29.80 in 10.0 mi SSW 8.1 mph - N/A   Clear
10:55 AM 82.4 °F 90.9 °F 77.0 °F 84% 29.80 in 10.0 mi SW 8.1 mph - N/A   Clear
11:15 AM 84.2 °F 92.3 °F 75.2 °F 74% 29.80 in 10.0 mi SW 10.4 mph - N/A   Clear
11:35 AM 84.2 °F 94.1 °F 77.0 °F 79% 29.80 in 10.0 mi SSW 5.8 mph - N/A   Clear
11:55 AM 87.8 °F 102.5 °F 78.8 °F 75% 29.80 in 10.0 mi South 5.8 mph - N/A   Clear
12:15 PM 87.8 °F 102.5 °F 78.8 °F 75% 29.79 in 10.0 mi South 8.1 mph - N/A   Scattered Clouds
12:35 PM 87.8 °F 99.7 °F 77.0 °F 70% 29.79 in 10.0 mi SSW 9.2 mph - N/A   Scattered Clouds
12:55 PM 87.8 °F 102.5 °F 78.8 °F 75% 29.79 in 10.0 mi SSW 10.4 mph - N/A   Scattered Clouds
1:15 PM 87.8 °F 102.5 °F 78.8 °F 75% 29.78 in 10.0 mi SSW 9.2 mph - N/A   Clear
1:35 PM 89.6 °F 102.2 °F 77.0 °F 66% 29.77 in 10.0 mi SSW 11.5 mph 17.3 mph N/A   Clear
1:55 PM 87.8 °F 99.7 °F 77.0 °F 70% 29.78 in 10.0 mi South 11.5 mph 18.4 mph N/A   Mostly Cloudy
2:15 PM 86.0 °F 96.9 °F 77.0 °F 74% 29.78 in 10.0 mi SSW 15.0 mph - N/A   Scattered Clouds
2:35 PM 84.2 °F 94.1 °F 77.0 °F 79% 29.77 in 10.0 mi SSW 12.7 mph - N/A   Clear
2:55 PM 86.0 °F 96.9 °F 77.0 °F 74% 29.76 in 10.0 mi SSW 15.0 mph 20.7 mph N/A   Clear
3:15 PM 87.8 °F 99.7 °F 77.0 °F 70% 29.77 in 10.0 mi SSW 13.8 mph 17.3 mph N/A   Clear
3:35 PM 87.8 °F 99.7 °F 77.0 °F 70% 29.78 in 10.0 mi SSW 10.4 mph - N/A   Scattered Clouds
3:55 PM 87.8 °F 99.7 °F 77.0 °F 70% 29.78 in 10.0 mi SW 8.1 mph - N/A   Mostly Cloudy
4:15 PM 87.8 °F 102.5 °F 78.8 °F 75% 29.78 in 10.0 mi SW 5.8 mph - N/A   Mostly Cloudy
4:35 PM 87.8 °F 102.5 °F 78.8 °F 75% 29.77 in 10.0 mi SW 6.9 mph - N/A   Mostly Cloudy
4:55 PM 87.8 °F 99.7 °F 77.0 °F 70% 29.77 in 10.0 mi SW 8.1 mph - N/A   Mostly Cloudy
5:15 PM 84.2 °F 92.3 °F 75.2 °F 74% 29.76 in 10.0 mi Calm Calm - N/A   Mostly Cloudy
5:35 PM 87.8 °F 97.6 °F 75.2 °F 66% 29.76 in 10.0 mi SW 10.4 mph - N/A   Scattered Clouds
5:55 PM 82.4 °F 88.2 °F 73.4 °F 74% 29.77 in 10.0 mi North 6.9 mph - N/A   Mostly Cloudy
6:15 PM 78.8 °F - 75.2 °F 89% 29.77 in 10.0 mi NNE 5.8 mph - N/A   Overcast
6:35 PM 78.8 °F - 75.2 °F 89% 29.78 in 10.0 mi ENE 5.8 mph - N/A   Mostly Cloudy
6:55 PM 80.6 °F 86.2 °F 75.2 °F 84% 29.78 in 10.0 mi East 3.5 mph - N/A   Mostly Cloudy
7:15 PM 80.6 °F 86.2 °F 75.2 °F 84% 29.77 in 10.0 mi East 5.8 mph - N/A   Scattered Clouds
7:35 PM 80.6 °F 86.2 °F 75.2 °F 84% 29.78 in 10.0 mi ENE 3.5 mph - N/A   Scattered Clouds
7:55 PM 80.6 °F 87.1 °F 77.0 °F 89% 29.79 in 10.0 mi Calm Calm - N/A   Clear
8:15 PM 80.6 °F 87.1 °F 77.0 °F 89% 29.79 in 10.0 mi Calm Calm - N/A   Scattered Clouds
8:35 PM 80.6 °F 88.1 °F 78.8 °F 94% 29.79 in 10.0 mi Calm Calm - N/A   Scattered Clouds
8:55 PM 80.6 °F 87.1 °F 77.0 °F 89% 29.80 in 10.0 mi SSE 3.5 mph - N/A   Scattered Clouds
9:15 PM 80.6 °F 88.1 °F 78.8 °F 94% 29.79 in 10.0 mi Calm Calm - N/A   Mostly Cloudy
9:35 PM 78.8 °F - 75.2 °F 89% 29.81 in 7.0 mi South 16.1 mph 19.6 mph N/A   Overcast
9:55 PM 75.2 °F - 73.4 °F 94% 29.80 in 5.0 mi South 4.6 mph - N/A   Overcast
10:15 PM 75.2 °F - 73.4 °F 94% 29.81 in 10.0 mi SSE 5.8 mph - N/A   Scattered Clouds
10:35 PM 75.2 °F - 73.4 °F 94% 29.83 in 10.0 mi SSE 8.1 mph - N/A   Scattered Clouds
10:55 PM 75.2 °F - 73.4 °F 94% 29.82 in 10.0 mi SSE 6.9 mph - N/A   Scattered Clouds
11:15 PM 75.2 °F - 73.4 °F 94% 29.82 in 10.0 mi SSE 5.8 mph - N/A   Scattered Clouds
11:35 PM 75.2 °F - 73.4 °F 94% 29.82 in 10.0 mi SSE 8.1 mph - N/A   Scattered Clouds
11:55 PM 75.2 °F - 75.2 °F 100% 29.82 in 10.0 mi SSE 3.5 mph - N/A   Mostly Cloudy